Location: Bathsheba
(13.2167°N, 59.5167°W)
Time: 23:42:18
(UTC+00:00)

CZ-2D R/B - Pass Details

Date: 18 September 2020
Orbit: 520 x 539 km, 97.4° (Epoch: 20 October)

Event Time Altitude Azimuth Distance (km) Brightness Sun altitude
Rises 22:51:55 0° 175° (S) 2,674 6.7 -14.3°
Reaches altitude 10° 22:54:03 10° 179° (S) 1,786 5.9 -14.8°
Maximum altitude 22:57:51 61° 259° (W) 613 3.8 -15.7°
Drops below altitude 10° 23:01:41 10° 340° (NNW) 1,792 6.3 -16.6°
Sets 23:03:49 0° 344° (NNW) 2,683 7.1 -17.2°
